Date String (YYYY-MM-DD hh:mm:ss) UTC,Instrument flags,absolute air pressure of the measurement (hPa),sample flow rate (lpm),inlet stack bypass flow (lpm),air temperature of the measurement (°C),ambient temperature measured by the external sensor (°C),aerosol sample conditioner tube jacket temperature (°C),OPC LED temperature (°C),internal box temperature (°C),relative humidity of the measurement (%),span deviation,mass concentration of particles derived from Lorenz-Mie calculation of OPC scattering (μg/m³),mass concentration of particles derived from Lorenz-Mie calculation of OPC scattering (μg/m³),mass concentration of particles derived from Lorenz-Mie calculation of OPC scattering (μg/m³)
DateTimeUTC,F1_M11,P_M11,Q1_M11,Q2_M11,T1_M11,T2_M11,T3_M11,T4_M11,T5_M11,U1_M11,ZSPAN_M11,X0_M11,X2_M11,X1_M11
2023-12-21 03:00:00,SystemResetWarning,0830.0,5.01,000.00,025.1,024.0,000.0,033.5,026.6,12.3,0000.0,0009.75,0003.93,0003.14
2023-12-21 03:01:00,SystemResetWarning,0830.0,5.01,000.00,025.1,024.0,000.0,033.5,026.5,12.3,0000.0,0009.79,0003.93,0003.14
2023-12-21 03:02:00,SystemResetWarning,0830.0,5.01,000.00,025.1,024.0,000.0,033.5,026.5,12.2,0000.0,0009.84,0003.91,0003.14
2023-12-21 03:03:00,SystemResetWarning,0830.0,4.99,000.00,025.1,024.0,000.0,033.5,026.5,12.2,0000.0,0010.45,0003.86,0003.13
2023-12-21 03:04:00,SystemResetWarning,0830.0,4.99,000.00,025.1,024.0,000.0,033.5,026.4,12.2,0000.0,0010.56,0003.84,0003.12
2023-12-21 03:05:00,SystemResetWarning,0830.0,5.01,000.00,025.1,024.0,000.0,033.5,026.4,12.2,0000.0,0010.53,0003.81,0003.11
2023-12-21 03:06:00,SystemResetWarning,0830.0,5.00,000.00,025.1,024.0,000.0,033.5,026.4,12.2,0000.0,0010.10,0003.78,0003.10
2023-12-21 03:07:00,SystemResetWarning,0830.0,5.00,000.00,025.1,024.0,000.0,033.5,026.4,12.2,0000.0,0010.41,0003.79,0003.09
2023-12-21 03:08:00,SystemResetWarning,0830.0,5.00,000.00,025.1,024.0,000.0,033.5,026.4,12.3,0000.0,0010.71,0003.77,0003.08
2023-12-21 03:09:00,SystemResetWarning,0830.0,5.01,000.00,025.1,023.9,000.0,033.5,026.4,12.2,0000.0,0010.66,0003.69,0003.05
2023-12-21 03:10:00,SystemResetWarning,0830.1,5.00,000.00,025.0,023.9,000.0,033.5,026.4,12.2,0000.0,0010.50,0003.68,0003.02
2023-12-21 03:11:00,SystemResetWarning,0830.0,4.99,000.00,025.0,023.9,000.0,033.5,026.4,12.2,0000.0,0010.67,0003.66,0003.01
2023-12-21 03:12:00,SystemResetWarning,0830.0,4.99,000.00,025.0,023.9,000.0,033.5,026.4,12.2,0000.0,0010.76,0003.64,0003.00
2023-12-21 03:13:00,SystemResetWarning,0830.0,5.02,000.00,025.0,023.9,000.0,033.4,026.4,12.2,0000.0,0011.12,0003.67,0002.99
2023-12-21 03:14:00,SystemResetWarning,0830.0,5.00,000.00,025.0,023.9,000.0,033.4,026.5,12.2,0000.0,0010.35,0003.69,0002.98
2023-12-21 03:15:00,SystemResetWarning,0830.0,4.99,000.00,025.0,023.9,000.0,033.4,026.5,12.2,0000.0,0010.05,0003.66,0002.96
2023-12-21 03:16:00,SystemResetWarning,0830.1,5.01,000.00,025.0,023.9,000.0,033.4,026.5,12.2,0000.0,0009.95,0003.65,0002.95
2023-12-21 03:17:00,SystemResetWarning,0830.1,5.02,000.00,025.0,023.9,000.0,033.4,026.5,12.2,0000.0,0010.31,0003.64,0002.93
2023-12-21 03:18:00,SystemResetWarning,0830.1,5.00,000.00,025.0,023.9,000.0,033.4,026.5,12.2,0000.0,0011.09,0003.58,0002.92
2023-12-21 03:19:00,SystemResetWarning,0830.1,4.99,000.00,025.0,023.9,000.0,033.4,026.5,12.2,0000.0,0010.64,0003.51,0002.89
2023-12-21 03:20:00,SystemResetWarning,0830.1,4.99,000.00,025.0,023.9,000.0,033.4,026.5,12.2,0000.0,0010.84,0003.50,0002.88
2023-12-21 03:21:00,SystemResetWarning,0830.1,5.00,000.00,025.0,023.9,000.0,033.4,026.5,12.2,0000.0,0011.53,0003.50,0002.89
2023-12-21 03:22:00,SystemResetWarning,0830.1,5.01,000.00,025.0,023.9,000.0,033.4,026.5,12.2,0000.0,0011.79,0003.51,0002.87
2023-12-21 03:23:00,SystemResetWarning,0830.1,4.99,000.00,025.0,023.9,000.0,033.4,026.5,12.2,0000.0,0012.13,0003.50,0002.84
2023-12-21 03:24:00,SystemResetWarning,0830.1,4.98,000.00,025.0,023.9,000.0,033.4,026.4,12.2,0000.0,0012.56,0003.45,0002.82
2023-12-21 03:25:00,SystemResetWarning,0830.1,5.02,000.00,025.0,023.9,000.0,033.4,026.4,12.2,0000.0,0012.08,0003.42,0002.82
2023-12-21 03:26:00,SystemResetWarning,0830.1,5.01,000.00,025.0,023.9,000.0,033.4,026.4,12.2,0000.0,0012.90,0003.42,0002.81
2023-12-21 03:27:00,SystemResetWarning,0830.1,4.99,000.00,025.0,023.9,000.0,033.4,026.4,12.3,0000.0,0012.95,0003.43,0002.80
2023-12-21 03:28:00,SystemResetWarning,0830.2,4.99,000.00,025.0,023.9,000.0,033.4,026.4,12.3,0000.0,0012.70,0003.42,0002.79
2023-12-21 03:29:00,SystemResetWarning,0830.1,5.01,000.00,025.0,023.9,000.0,033.4,026.4,12.3,0000.0,0011.53,0003.44,0002.78
2023-12-21 03:30:00,SystemResetWarning,0830.1,5.02,000.00,025.0,023.9,000.0,033.4,026.4,12.3,0000.0,0011.19,0003.44,0002.77
2023-12-21 03:31:00,SystemResetWarning,0830.1,4.99,000.00,025.0,023.9,000.0,033.4,026.4,12.3,0000.0,0010.99,0003.45,0002.76
2023-12-21 03:32:00,SystemResetWarning,0830.1,5.00,000.00,025.0,023.9,000.0,033.4,026.4,12.3,0000.0,0010.56,0003.42,0002.75
2023-12-21 03:33:00,SystemResetWarning,0830.1,5.00,000.00,025.0,023.9,000.0,033.4,026.4,12.4,0000.0,0011.35,0003.40,0002.73
2023-12-21 03:34:00,SystemResetWarning,0830.1,5.00,000.00,025.0,023.9,000.0,033.4,026.4,12.4,0000.0,0012.38,0003.41,0002.72
2023-12-21 03:35:00,SystemResetWarning,0830.0,5.01,000.00,025.0,023.9,000.0,033.4,026.4,12.4,0000.0,0011.21,0003.40,0002.72
2023-12-21 03:36:00,SystemResetWarning,0830.0,5.00,000.00,025.0,023.9,000.0,033.3,026.4,12.5,0000.0,0011.17,0003.39,0002.71
2023-12-21 03:37:00,SystemResetWarning,0830.0,5.00,000.00,025.0,023.9,000.0,033.3,026.4,12.4,0000.0,0010.66,0003.37,0002.71
2023-12-21 03:38:00,SystemResetWarning,0830.0,5.00,000.00,025.0,023.9,000.0,033.3,026.4,12.4,0000.0,0010.17,0003.33,0002.71
2023-12-21 03:39:00,SystemResetWarning,0830.0,4.99,000.00,025.0,023.9,000.0,033.3,026.4,12.4,0000.0,0010.67,0003.34,0002.71
2023-12-21 03:40:00,SystemResetWarning,0830.1,5.01,000.00,025.0,023.9,000.0,033.3,026.4,12.4,0000.0,0010.83,0003.37,0002.71
2023-12-21 03:41:00,SystemResetWarning,0830.0,5.01,000.00,025.0,023.9,000.0,033.3,026.3,12.5,0000.0,0010.87,0003.39,0002.72
2023-12-21 03:42:00,SystemResetWarning,0830.0,4.99,000.00,025.0,023.9,000.0,033.3,026.3,12.5,0000.0,0010.91,0003.40,0002.73
2023-12-21 03:43:00,SystemResetWarning,0830.0,5.00,000.00,025.0,023.9,000.0,033.3,026.4,12.5,0000.0,0010.65,0003.40,0002.73
2023-12-21 03:44:00,SystemResetWarning,0830.0,5.01,000.00,025.0,023.9,000.0,033.3,026.3,12.4,0000.0,0009.32,0003.39,0002.73
2023-12-21 03:45:00,SystemResetWarning,0830.0,5.01,000.00,024.9,023.8,000.0,033.3,026.3,12.5,0000.0,0007.59,0003.38,0002.73
2023-12-21 03:46:00,SystemResetWarning,0830.0,5.00,000.00,024.9,023.8,000.0,033.3,026.3,12.5,0000.0,0008.10,0003.38,0002.71
2023-12-21 03:47:00,SystemResetWarning,0830.0,4.99,000.00,024.9,023.8,000.0,033.3,026.3,12.5,0000.0,0008.44,0003.41,0002.71
2023-12-21 03:48:00,SystemResetWarning,0830.0,4.99,000.00,024.9,023.8,000.0,033.3,026.3,12.5,0000.0,0008.23,0003.41,0002.69
2023-12-21 03:49:00,SystemResetWarning,0830.0,5.00,000.00,024.9,023.8,000.0,033.3,026.3,12.5,0000.0,0008.32,0003.43,0002.70
2023-12-21 03:50:00,SystemResetWarning,0830.0,5.00,000.00,024.9,023.8,000.0,033.3,026.3,12.5,0000.0,0007.84,0003.43,0002.70
2023-12-21 03:51:00,SystemResetWarning,0830.0,5.00,000.00,024.9,023.8,000.0,033.3,026.3,12.5,0000.0,0007.59,0003.39,0002.69
2023-12-21 03:52:00,SystemResetWarning,0830.0,4.99,000.00,024.9,023.8,000.0,033.3,026.3,12.5,0000.0,0007.97,0003.36,0002.69
2023-12-21 03:53:00,SystemResetWarning,0830.0,5.00,000.00,024.9,023.8,000.0,033.3,026.3,12.5,0000.0,0008.55,0003.33,0002.66
2023-12-21 03:54:00,SystemResetWarning,0830.0,5.00,000.00,024.9,023.8,000.0,033.3,026.2,12.6,0000.0,0008.55,0003.33,0002.65
2023-12-21 03:55:00,SystemResetWarning,0830.0,5.01,000.00,024.9,023.8,000.0,033.3,026.2,12.6,0000.0,0008.59,0003.32,0002.64
2023-12-21 03:56:00,SystemResetWarning,0830.1,5.01,000.00,024.9,023.8,000.0,033.2,026.3,12.6,0000.0,0008.64,0003.34,0002.65
2023-12-21 03:57:00,SystemResetWarning,0830.0,5.00,000.00,024.9,023.8,000.0,033.2,026.3,12.6,0000.0,0008.08,0003.33,0002.64
2023-12-21 03:58:00,SystemResetWarning,0830.0,4.98,000.00,024.9,023.8,000.0,033.2,026.3,12.6,0000.0,0007.63,0003.29,0002.64
2023-12-21 03:59:00,SystemResetWarning,0830.0,4.99,000.00,024.8,023.8,000.0,033.2,026.3,12.6,0000.0,0007.65,0003.26,0002.63
